timestamp,gas_concentrations,,corrected_fluxes_and_quality_flags,,,,,,,,,,storage_terms,,,turbulence,,,footprint,,
ISOdate,CO2_1_1_1,H2O_1_1_1,Tau_1_1_1,QcTau_1_1_1,H_1_1_1,QcH_1_1_1,LE_1_1_1, QcLE_1_1_1,Fc_1_1_1, QcFc_1_1_1,E_1_1_1, QcE_1_1_1,Sa_1_1_1,Sw_1_1_1,Sc_1_1_1,ustar_1_1_1,MO_length_1_1_1,ZL_1_1_1,Fetchmax_1_1_1,Fetch70_1_1_1,Fetch90_1_1_1
yyyymmddHHMM,[µmol+1mol_a-1],[mmol+1mol_a-1],[kg+1m-1s-2],[#],[W+1m-2],[#],[W+1m-2],[#],[µmol+1s-1m-2],[#],[mmol+1s-1m-2],[#],[W+1m-2],[W+1m-2],[µmol+1s-1m-2],[m+1s-1],[m],[#],[m],[m],[m]
201809250030,401.84814511103076,14.241175251083982,0.39878039682289740,0,-70.016504237745963,0,36.606259902252766,0,6.2882527944554418,0,0.82587142175518780,0,-9999.,-9999.,-9999.,0.59469056855278291,251.70882160079933,8.58134405565522257E-002,112.14043756652526,205.02848522977402,307.17003195583641
201809250100,403.22537274702404,14.357369594620240,0.32852660791601612,0,-55.909016110201108,0,20.873580492056476,0,5.7740683543288611,0,0.47074861664287254,0,-8.7738283897584726,3.9270698290671389,1.0497393262381041,0.53937829736140397,235.21918175473775,9.18292455524407358E-002,114.65682792723054,209.62924937068564,314.06281500791476
201809250130,404.41509070470801,14.442690718393402,0.22720022798278566,0,-51.419103675011606,0,16.253137503490926,0,5.2375517066830932,0,0.36642352783364840,0,-7.7745419719223596,2.8880620947805191,0.90790439537190282,0.44829039841467200,146.83488708390198,0.14710400524677547,104.45986884478853,190.98595601468438,286.13176430777861
201809250200,405.32541350021705,14.508154363121982,0.40088617821042960,0,-53.332829898470123,0,1.3600397713163697,2,5.4555847267055002,0,3.06501013956750126E-002,2,-8.8467516946912053,2.2193367173763767,0.69550257492478040,0.59513760203071042,331.18559174358722,6.52202285923214331E-002,119.11874041601243,217.78704845417914,326.28468458061212
201809250230,404.41743214502304,14.978011141606801,0.50863299032725373,0,-37.654056001154473,0,-5.7260138567584482,2,4.2048160395791747,0,-0.12901433472367757,2,-5.0588574858128847,15.942496568664110,-0.69415001718191771,0.67021071397053655,669.91781353775355,3.22427610723367078E-002,109.01975860510635,199.32288879879363,298.62200880643235
201809250300,404.64438179230945,14.930943829773327,0.69008319827500608,0,-50.272828268112370,0,3.9669882678384125,1,4.2100805025508761,0,8.93553826126919082E-002,1,-6.7223080353304479,-1.5985609294530210,0.17361974495378876,0.78038577920466157,791.90642432752588,2.72759499562620321E-002,112.76104821539629,206.16315942952474,308.86998067177353
201809250330,405.41143399045302,14.615517418828890,0.73119078580668384,0,-50.354736458836534,0,5.0851290989128080,2,4.3518799391597582,0,0.11449954333692712,2,-8.4560663392328301,-10.725924660235602,0.58730456704876510,0.80290377735317786,860.71390921542343,2.50954466620497627E-002,112.30830017655229,205.33539161793701,307.62983365097074
201809250400,406.02279395990064,14.379971765200645,0.97250633191481117,0,-52.230524224179987,0,25.208604010329122,0,6.7650308392556848,0,0.56747081279388434,0,-5.7323092184200357,-8.0162173368050524,0.46836681854630313,0.92565592798628149,1271.2065199030101,1.69917316044351542E-002,111.12213639308867,203.16670591423005,304.38074728054141
201809250430,407.90252755696292,14.487193826119562,1.0439594173148714,0,-30.964072327846424,0,2.3718808391762720,0,4.3566843936319346,0,5.33830186985687696E-002,0,-4.5270108982960036,3.6515405765610498,1.4407829021032879,0.95884292451427677,2382.9596388541677,9.06435830796791658E-003,113.14611084960208,206.86717673428123,309.92472688304832
201809250500,410.15486560550164,14.636451212097407,1.1150333018967300,0,-23.171220203833212,0,3.5066630628041642,0,6.2905181165023558,0,7.89007321359430774E-002,0,-6.6157230358761190,5.0905282795034754,1.7284132655836353,0.99038947092510565,3509.5981022543269,6.15455085473337604E-003,116.04762717023895,212.17207395957286,317.87242960537532
201809250530,411.80646838979817,14.694944244079521,0.75750801177871330,0,-29.080882863074912,0,-0.99969125937883929,2,8.4154444242302748,0,-2.24886534415767933E-002,2,-4.8041046163429426,1.9965295232233933,1.2681620897007360,0.81608044071281505,1564.3471867875771,1.38076765710533206E-002,110.36709252832250,201.78624492054783,302.31256515907700
201809250600,413.06352992158105,14.861152420426066,0.73364097852074683,0,-27.753894430419685,0,0.45161354940058313,1,9.6768741216480780,0,1.01599972121828464E-002,1,1.5608459656951188,5.6701433425351011,0.96477227762678341,0.80333244743781929,1563.3231624406485,1.38167210202900358E-002,111.87043775186520,204.53483945655117,306.43046063351119
201809250630,413.21053252839448,15.077689509373341,0.61344089496321408,0,-21.082347594810489,0,4.4040721829973020,0,7.5475565705925032,0,9.91067083814701905E-002,0,6.5415644945862619,7.3756702461692267,0.11267896725990161,0.73507726437349352,1576.5504959519851,1.37007980749497306E-002,100.15190136800508,183.10961751136736,274.33157397301858
201809250700,413.54268912028243,15.334649004944753,0.76600609839893463,0,-16.506784544411030,1,10.162931476997402,1,9.7951016372197834,0,0.22877163647008347,1,7.2041612750092234,8.7388070763477845,0.25428078168636026,0.82197298137096175,2815.2491872334549,7.67250021701500542E-003,110.95870257253256,202.86789676570987,303.93307672590225
201809250730,412.39280722666831,15.621890527043986,0.56111781181268561,0,-9.6339151869301478,1,-74.224496448358508,2,26.612170689673928,1,-1.6714877081458437,2,9.2356228991819602,9.7538087779152800,-0.87929819249165242,0.70394064045519411,3030.6390671033387,7.12720964844062218E-003,97.603436452451703,178.45021085453882,267.35093374603116
201809250800,454.29343341754691,14.660831260748958,0.26401836537532980,1,-40.545292270873595,1,159.65912628979865,1,46.632704658960350,1,3.5914516703471593,1,-25.761886173293203,-32.815643152203343,32.183075316733579,0.48170890181425369,230.77873771512910,9.35961441415925355E-002,116.11352829283538,212.29256222976417,318.05294298995938
201809250830,468.55502581460473,14.431416910535997,9.42373805593643005E-003,0,-0.35770587095572731,1,-4.4327012897714013,2,-8.6617187415062933,0,-9.96523160435194982E-002,2,-13.858728940745902,-7.8525642164097471,10.974326250609316,9.09198802902486530E-002,175.83959267929154,0.12283922904323136,141.28854566487024,1133.0000000000000,5020.0000000000000
201809250900,447.41505569253491,14.307689834712658,7.01543012888674322E-002,0,-5.1500556688363002,1,-105.26642527705062,1,7.6737643186887130,2,-2.3659779313642106,1,-5.2909606096509014,-4.2401166850815049,-16.283143224325332,0.24794318518509603,247.71228801142450,8.71979350455307639E-002,121.10159043756080,221.41233069114844,331.71601798450865
201809250930,483.21293575723638,13.803399743863908,0.21297429096175416,0,-25.693095651835925,1,152.67988542305821,1,-10.633224918519865,2,3.4297454636225764,1,-13.013591335918395,-17.327888402446511,27.631380377459617,0.43151041944403806,261.72315636200352,8.25299537887425882E-002,117.72484556652014,215.23856410934638,322.46659063740253
201809251000,460.89422476788616,13.557479681149351,7.43218926932871504E-002,0,4.5926068342315318,1,-10.229713996968487,2,6.8517034544559099,1,-0.22970593169919881,2,-9.2781570866375525,-8.4644783903679048,-17.249800091915077,0.25473049337100545,-301.16640987547623,-7.17211458241009958E-002,97.553388001620149,178.35870632428404,267.21384328540091
201809251030,437.62703528871668,13.466787237883892,9.95425202085622463E-002,0,4.9266363204974439,1,-99.209818174424200,2,20.073845688764141,1,-2.2273995523088264,2,-3.5362644138964150,-3.1242869965986988,-17.995636835097013,0.29468987833453913,-434.72031966772079,-4.96871184133053576E-002,95.884833892070560,175.30805725398841,262.64341507705421
201809251100,413.32369185636810,13.414932610645279,8.38735571523009926E-002,0,-6.5600046941760892,0,16.263504750256960,0,2.6036495303644531,0,0.36511281707172921,0,-1.6562208576838213,-1.7875204422248581,-18.807993345790834,0.27042235005979121,252.33931482949649,8.55990277004395339E-002,95.697936909006955,174.96634996121267,262.13147528525485
201809251130,413.95470883636574,13.374104579148961,0.13478422439409304,0,-0.51937672527111722,2,19.818652709638091,0,2.9943464393625803,0,0.44491004831467940,0,-0.80588211910678142,-1.4080961097086389,0.48855446900368099,0.34272711170036224,6489.6560379818693,3.32837362621102697E-003,110.15788682003827,201.40375016306581,301.73951831269846
201809251200,413.55609376919972,13.321117800182138,0.10211475973643076,0,-0.28395372284311093,2,21.842659083332517,0,2.0959049313269871,0,0.49031683887996524,0,-1.4539746041714297,-1.8280346234922586,-0.30870375258771543,0.29827076582234235,7824.4136866952913,2.76059023268783064E-003,89.200913518800192,163.08771908458286,244.33512166211406
201809251230,414.20400696077940,13.293793310110997,9.39331904501797960E-002,0,-2.7339018665352230,0,11.178669315688255,0,0.38682485111629478,0,0.25092042446543578,0,-1.3788153591690167,-0.94287125580081255,0.50183743746788834,0.28605180530272439,716.78843130641746,3.01344149216134470E-002,109.54870124618726,200.28996464429247,300.07086464728144
201809251300,415.80925943415076,13.229360073704415,9.33470807449509471E-002,0,-5.4202671414699983,0,18.782206978741339,0,1.7252305165513415,1,0.42159121741494665,0,-5.27523447226204700E-002,-2.2238466025466468,1.2436070107471819,0.28512376666755795,358.07895637720679,6.03218916256172688E-002,106.66635312783023,195.02011300615300,292.17566660065046
201809251330,442.32940023490266,13.300037684782341,0.16455618894558191,0,-12.697446850047903,2,142.81584130126382,2,-36.180604677560197,1,3.2057775934042683,2,0.65567532362667202,2.4394108981540459,20.546409043981097,0.37856097981462544,357.80136023377617,6.03686916838081303E-002,119.13114598648411,217.80972979355516,326.31866536007857
201809251400,409.60349639336806,12.975092670089582,0.20475280320546463,0,126.90882790922237,1,-9999.,-9999.,9.3004156718161788,2,-9999.,-9999.,-7.3042126739457247,3209.1588837285813,-25.386752922416058,0.42197735877779863,-49.584361727305144,-0.43562121700369294,83.216663297436483,152.14660110121241,227.94333319029235
201809251530,429.30784316888582,12.323942472560033,1.6445193376873235,1,-344.11661244992649,1,-9999.,-9999.,27.555142859547747,1,-9999.,-9999.,-9999.,-9999.,-9999.,1.1939786457418937,414.17197820421433,5.21522486713231134E-002,161.71405867605014,295.66487531351186,442.95986041397691
201809251600,373.79061875081879,12.127757733599175,0.23559195651999654,0,53.337644975692548,1,-58.255969213239318,2,-207.44601964024989,1,-1.3059947477796481,2,-3.5420689337586642,-6.8102667644896808,-43.204367020023220,0.45184798199528753,-144.78483692054891,-0.14918689318172912,99.420939625172821,181.77318631717921,272.32935651447622
201809251630,476.35848332226055,12.073716742022183,0.31980618527149113,0,46.532634734476183,0,-9999.,-9999.,-21.266409328080478,1,-9999.,-9999.,3.4957407222201420,535.71731774756631,79.799506048968141,0.52650996510307124,-262.62024007070119,-8.22480399613714774E-002,110.08417057305273,201.26897335298511,301.53759809164723
201809251700,479.05595661264789,11.929156458038157,0.22573037399143792,0,23.169706285048363,1,-91.821635605934716,2,69.266526605809247,1,-2.0592682844381085,2,5.6124215041229109,-5.0133505322163865,2.0979934990377154,0.44240211511869915,-313.00913066487510,-6.90075716133858041E-002,109.36043876288861,199.94576078158306,299.55518453878688
201809251730,476.37651236036430,12.024997354679707,0.26630933601857926,0,8.4640807598782111,0,-9999.,-9999.,36.050806542607930,2,-9999.,-9999.,-5.1691454329566753,-950.29701689835508,-2.0851529415056147,0.48039689651454043,-1096.9309831928601,-1.96913026716853470E-002,102.88630447511601,188.10897848430770,281.82152771332863
201809251800,455.21486792699307,11.970874899792589,0.30797470202201327,0,-6.9930218676381903,1,343.49651658004325,1,-86.633857588093406,1,7.7020235232967069,1,0.50704048866949469,-1.8782865690620547,-16.467068130060795,0.51662237877806227,1651.2582583703529,1.30809338215315315E-002,118.11246090916838,215.94724857928026,323.52832911258190
201809251830,431.69256703066361,12.017643827618134,0.17519658982318440,1,59.821096761270184,0,-9999.,-9999.,-50.089084131550763,1,-9999.,-9999.,0.28004867845802489,-463.75172016081854,-18.306572062640907,0.38962982673626817,-82.817599618650362,-0.26081412766684103,109.02209961553227,199.32716891247918,298.62842119667215
201809251900,438.79812974010702,11.907857191911962,0.22333244939941696,0,-4.6701291136052054,2,-9999.,-9999.,62.178741726239522,1,-9999.,-9999.,-4.3611467445688206,1089.2147659890659,5.5319950884295199,0.43982325644602099,1525.5204130296247,1.41591025695311633E-002,106.91384895326910,195.47261430980018,292.85359601004740
201809251930,405.90000924706402,11.639754738837322,0.20799407842281525,0,27.447795345651613,1,-9999.,-9999.,-105.02481876284853,1,-9999.,-9999.,-11.436705537599966,2665.7471247602107,-25.656626431305014,0.42406562624613314,-232.62814941982535,-9.28520475869769185E-002,104.45782994037926,190.98222824714904,286.12617943272249
201809252000,490.44702115006555,11.352248824379556,0.19871188501365958,0,38.113310777546545,0,-9999.,-9999.,-7.9877402710546157,2,-9999.,-9999.,-11.245432229460949,2863.6285287315277,66.019668290100498,0.41421182362559644,-156.05773261029594,-0.13841031545638988,93.120015486038071,170.25308741415736,255.07014912087965
201809252030,489.10032454779827,11.300266279558338,0.14605719943200252,0,25.889693065678408,0,-9999.,-9999.,20.708841565945622,2,-9999.,-9999.,-2.9227550282561783,517.72147340368360,-1.0513813659292064,0.35514855312559490,-144.74103593887665,-0.14923203955180731,110.39716782304217,201.84123215131868,302.39494605075703
201809252100,441.24277511749290,11.213504599607479,0.25722193499936108,0,65.381548071815644,0,-9999.,-9999.,10.791015615446415,2,-9999.,-9999.,-2.6059902613240173,864.90487663070837,-37.393423826823330,0.47110561348452995,-133.81604727820405,-0.16141561822621708,111.32298961279965,203.53392965871058,304.93091536670079
201809252130,518.45068746179402,11.026969528093986,0.28871695562731597,0,48.570297943817508,1,-9999.,-9999.,-39.043750002754265,1,-9999.,-9999.,-6.7151721740189432,1861.9024823359387,60.386575280455361,0.49884788458211615,-213.85160267810832,-0.10100462063177777,114.09656335881922,208.60490705241045,312.52816355552915
201809252200,415.12354053933439,10.871746380627078,0.68605096215370365,1,-67.344588252267073,0,-9999.,-9999.,-33.454234319454891,1,-9999.,-9999.,-5.6302739421492820,1550.4937907937738,-80.855159316203356,0.76875866893660028,564.30632324588282,3.82770830490735542E-002,135.30126600414604,247.37386638110956,370.61112925927063
201809252230,396.21918834259549,10.780773866755275,0.13035783176914995,0,-35.223584114205266,1,358.80703283900772,1,-23.648122594405173,2,8.0292399026023595,1,-3.0153280344455355,-3.1837523663817255,-14.804862288566355,0.33496410063588633,89.269931144572013,0.24196277204492245,99.763906862251389,182.40023981034881,273.26879691135116
201809252300,431.39108346549745,10.689262640799985,0.12511345661805170,0,-34.962805116080268,0,-82.621104121347727,2,-34.801591787347064,1,-1.8486628842471395,2,-2.5752409165493386,-3.2049377978367977,27.561809616566229,0.32804957079492880,84.492234400993027,0.25564479568013576,85.409406970266261,156.15563587487071,233.94959782301692
201809252330,416.88427411005802,10.543654075271460,0.23684508447524699,0,-15.116777630828674,0,-275.02019373176631,0,-12.420238187075110,2,-6.1526765622057651,0,-3.7051123204214753,-5.1035844219791686,-11.375219486538972,0.45120061713984638,508.46498809749579,4.24808010494879956E-002,95.565308945178188,174.72386374381415,261.76818674481780
201809260000,436.44890186593523,10.389281369477384,0.29252552787126507,0,-61.892105099041082,1,-9999.,-9999.,-20.808874157562286,1,-9999.,-9999.,-3.7374511046935441,1546.8284403763323,15.349224232074993,0.50129477406688572,170.30401895487188,0.12683200392190211,109.18074927420585,199.61723108724794,299.06298719072441
